INTELSAT 33E DEB, 61996

Orbit data source: Space-Track

INTELSAT 33E DEB, 61996 is space debris in GEO originally from a launch on Wed, 24 Aug 2016 UTC launched from the French Guiana (FRGUI). Debris objects in space refer to the collection of defunct objects orbiting the Earth. Examples of debris include non-operational satellites, rocket bodies, and fragments generated from explosions, collisions, or faulty payload assembly.

Not visible in the next 10 days
Identifier
61996, 2016-053N
Orbit
GEO
Country
Flag of USUS / ITSO
Related business
Manufacturer
Boeing/ES
Mission
Spacecraft
Bus & Motor
Unknown
Mass
Unknown
Launch date (UTC)
Icon of a cake. It is the launch day of the satellite!2016-08-24 (10 years ago)
Launch vehicle
Unknown
Launch site
French Guiana (FRGUI)
Object type
Payload
Rocket body
Debris
Shape & HBR
Unknown shape, 1.1 m
Radar Cross Section
RCS unknown

Expand to show TLE details & history
Last TLE update: 1 day ago

TLE from 1 day ago
0 INTELSAT 33E DEB
1 61996U 16053N   26234.86360937 -.00000166  00000-0  00000-0 0  9999
2 61996   1.5877  68.4892 0045861 345.7104  14.6249  1.00594792  6779
Epoch: 2026-08-22T20:43Z
TLE epoch observation values (Epoch: 2026-08-22T20:43:35.849Z)
Latitude
0.00001°
Longitude
146.89352°
Altitude
35,509.958 km
Speed
3.092 km/s
True Right ascension
04h 35m 50s
True Declination
0° 00' 00"
Sunlit
Object was in daylight at epoch
Visualization orbit readout
Latitude
Unknown
Longitude
Unknown
Altitude
Unknown
Speed
Unknown
Apparent Right ascension
Unknown
Apparent Declination
Unknown
Sunlit
N/A
Visualization observer readout
Local Sidereal Time
15:54:10
Azimuth
Unknown
Elevation
Unknown
Doppler factor
Unknown
Orbital elements
Apogee altitude
35,890.321 km
Perigee altitude
35,504.396 km
Semi-major axis
42,075.495 km
Eccentricity
0.00459
Inclination
1.5877°
RAAN
68.4892°
Arg. of periapsis
345.7104°
True anomaly
14.75833°
Mean anomaly
14.6249°
Eccentric anomaly
14.69154°
Mean motion
0.25148 °/min
Orbital period
1,431.54 mins
BSTAR
0
Loading maneuver chart data...
Computing Atmospheric mass density...
Loading historical data...
Loading historical data...
Loading historical data...
Loading historical data...
Loading historical data...
Loading historical data...
Loading historical data...

Documentation

Showing up to 5 results
|